QPF
0.00 0.00 0.00 0.00 0.00 0.00 0.00 0.00 0.00 0.00 0.00 0.00 0.00 0.00 0.00 0.00 0.00 0.00 0.00 0.00 0.00 0.00 0.00 0.00 0.00 0.00 0.00 0.00 0.00 0.00 0.00 0.00 0.00 0.00 0.00 0.00 0.01 0.01 0.00 0.00 0.00 0.00 0.00 0.00 0.00
0.00 0.00 0.00 0.00 0.00 0.00 0.00 0.00 0.00 0.00 0.00 0.00 0.00 0.00 0.00 0.00 0.00 0.00 0.00 0.00 0.00 0.00 0.00 0.00 0.00 0.00 0.00 0.00 0.00 0.00 0.00 0.00 0.00 0.00 0.00 0.00 0.01 0.01 0.01 0.00 0.00 0.00 0.00 0.00 0.00
0.00 0.00 0.00 0.00 0.00 0.00 0.00 0.00 0.00 0.00 0.00 0.00 0.00 0.00 0.00 0.00 0.00 0.00 0.00 0.00 0.00 0.00 0.00 0.00 0.00 0.00 0.00 0.00 0.00 0.00 0.00 0.00 0.00 0.00 0.00 0.00 0.01 0.01 0.01 0.01 0.00 0.00 0.00 0.00 0.00
0.00 0.00 0.00 0.00 0.00 0.00 0.00 0.00 0.00 0.00 0.00 0.00 0.00 0.00 0.00 0.00 0.00 0.00 0.00 0.00 0.00 0.00 0.00 0.00 0.00 0.00 0.00 0.00 0.00 0.00 0.00 0.00 0.00 0.00 0.00 0.00 0.00 0.01 0.01 0.02 0.00 0.00 0.00 0.00 0.00
0.00 0.00 0.00 0.00 0.00 0.00 0.00 0.00 0.00 0.00 0.00 0.00 0.00 0.00 0.00 0.00 0.00 0.00 0.00 0.00 0.00 0.00 0.00 0.00 0.00 0.00 0.00 0.00 0.00 0.00 0.00 0.00 0.00 0.00 0.00 0.00 0.00 0.00 0.02 0.02 0.01 0.00 0.00 0.00 0.00
0.00 0.00 0.00 0.00 0.00 0.00 0.00 0.00 0.00 0.00 0.00 0.00 0.00 0.00 0.00 0.00 0.00 0.00 0.00 0.00 0.00 0.00 0.00 0.00 0.00 0.00 0.00 0.00 0.00 0.00 0.00 0.00 0.00 0.00 0.00 0.00 0.00 0.00 0.00 0.01 0.01 0.02 0.01 0.00 0.00
0.00 0.00 0.00 0.00 0.00 0.00 0.00 0.00 0.00 0.00 0.01 0.01 0.00 0.00 0.00 0.00 0.00 0.00 0.00 0.00 0.00 0.00 0.00 0.00 0.00 0.00 0.00 0.00 0.00 0.00 0.00 0.00 0.00 0.00 0.00 0.00 0.00 0.00 0.00 0.00 0.00 0.01 0.00 0.00 0.00
0.00 0.00 0.00 0.00 0.00 0.00 0.00 0.00 0.00 0.00 0.00 0.00 0.00 0.00 0.00 0.00 0.00 0.00 0.00 0.00 0.00 0.00 0.00 0.00 0.00 0.00 0.00 0.00 0.00 0.00 0.00 0.00 0.00 0.00 0.00 0.00 0.00 0.00 0.00 0.00 0.00 0.01 0.01 0.01 0.00
0.00 0.00 0.00 0.00 0.00 0.00 0.00 0.00 0.00 0.00 0.00 0.00 0.00 0.00 0.00 0.00 0.00 0.00 0.00 0.00 0.00 0.00 0.00 0.00 0.00 0.00 0.00 0.00 0.00 0.00 0.00 0.00 0.00 0.00 0.00 0.00 0.00 0.00 0.01 0.01 0.02 0.04 0.03 0.03 0.01
0.00 0.00 0.00 0.00 0.00 0.00 0.00 0.00 0.00 0.00 0.00 0.00 0.00 0.00 0.00 0.00 0.00 0.00 0.00 0.00 0.00 0.00 0.00 0.00 0.00 0.00 0.00 0.00 0.00 0.00 0.00 0.00 0.00 0.00 0.00 0.00 0.00 0.00 0.00 0.01 0.01 0.03 0.06 0.02 0.01
0.00 0.00 0.00 0.00 0.00 0.00 0.00 0.00 0.00 0.00 0.00 0.00 0.00 0.00 0.00 0.00 0.00 0.00 0.00 0.00 0.00 0.00 0.00 0.00 0.00 0.00 0.00 0.00 0.00 0.00 0.00 0.00 0.00 0.00 0.00 0.00 0.00 0.01 0.02 0.01 0.01 0.01 0.01 0.00 0.00
0.00 0.00 0.00 0.00 0.00 0.00 0.00 0.00 0.00 0.00 0.00 0.00 0.00 0.00 0.00 0.00 0.00 0.00 0.00 0.00 0.00 0.00 0.00 0.00 0.00 0.00 0.00 0.00 0.00 0.01 0.01 0.00 0.00 0.00 0.00 0.00 0.00 0.01 0.01 0.01 0.01 0.00 0.00 0.01 0.00
0.00 0.00 0.00 0.00 0.00 0.00 0.00 0.00 0.00 0.00 0.00 0.00 0.00 0.00 0.00 0.00 0.00 0.00 0.00 0.00 0.00 0.00 0.00 0.00 0.00 0.01 0.01 0.01 0.01 0.00 0.01 0.02 0.01 0.00 0.00 0.00 0.00 0.00 0.00 0.00 0.00 0.00 0.01 0.01 0.01
0.00 0.00 0.00 0.00 0.00 0.00 0.00 0.00 0.00 0.00 0.00 0.00 0.00 0.00 0.00 0.00 0.00 0.00 0.00 0.00 0.00 0.00 0.03 0.02 0.00 0.01 0.02 0.01 0.01 0.01 0.02 0.04 0.03 0.02 0.01 0.00 0.00 0.00 0.00 0.00 0.00 0.00 0.00 0.00 0.00
0.00 0.00 0.00 0.00 0.00 0.00 0.00 0.00 0.00 0.00 0.00 0.00 0.00 0.00 0.00 0.00 0.00 0.00 0.00 0.00 0.00 0.00 0.03 0.02 0.02 0.02 0.05 0.01 0.01 0.00 0.03 0.05 0.05 0.04 0.01 0.00 0.00 0.00 0.00 0.00 0.00 0.00 0.00 0.00 0.00
0.00 0.00 0.00 0.00 0.00 0.00 0.00 0.00 0.00 0.00 0.00 0.00 0.00 0.00 0.00 0.00 0.00 0.00 0.00 0.00 0.00 0.01 0.04 0.04 0.04 0.04 0.03 0.03 0.03 0.03 0.06 0.08 0.04 0.02 0.00 0.00 0.00 0.00 0.00 0.00 0.00 0.00 0.00 0.00 0.00
0.00 0.00 0.00 0.00 0.00 0.00 0.00 0.00 0.00 0.00 0.00 0.00 0.00 0.00 0.00 0.00 0.00 0.00 0.00 0.00 0.00 0.05 0.03 0.03 0.05 0.05 0.04 0.02 0.04 0.07 0.08 0.07 0.04 0.01 0.00 0.00 0.00 0.00 0.00 0.00 0.00 0.00 0.00 0.00 0.00
0.00 0.00 0.00 0.00 0.00 0.00 0.00 0.00 0.00 0.00 0.00 0.00 0.00 0.00 0.00 0.00 0.00 0.00 0.00 0.00 0.00 0.04 0.06 0.01 0.01 0.02 0.02 0.02 0.01 0.03 0.05 0.05 0.01 0.00 0.00 0.00 0.00 0.00 0.00 0.00 0.00 0.00 0.00 0.00 0.00
0.00 0.00 0.00 0.00 0.00 0.00 0.00 0.00 0.00 0.00 0.00 0.00 0.00 0.00 0.00 0.00 0.00 0.00 0.00 0.00 0.00 0.00 0.04 0.08 0.07 0.00 0.01 0.01 0.01 0.01 0.02 0.01 0.00 0.00 0.00 0.00 0.00 0.00 0.00 0.00 0.00 0.00 0.00 0.00 0.00
0.00 0.00 0.00 0.00 0.00 0.00 0.00 0.00 0.00 0.00 0.00 0.00 0.00 0.00 0.00 0.00 0.00 0.00 0.00 0.00 0.00 0.00 0.00 0.05 0.02 0.00 0.04 0.00 0.00 0.01 0.01 0.01 0.00 0.00 0.00 0.00 0.00 0.00 0.00 0.00 0.00 0.00 0.00 0.00 0.00
0.00 0.00 0.00 0.00 0.00 0.00 0.00 0.00 0.00 0.00 0.00 0.00 0.00 0.00 0.00 0.00 0.00 0.00 0.00 0.00 0.00 0.00 0.00 0.00 0.00 0.00 0.03 0.01 0.00 0.00 0.00 0.00 0.01 0.00 0.00 0.00 0.00 0.00 0.00 0.00 0.00 0.00 0.00 0.00 0.00
0.00 0.00 0.00 0.00 0.00 0.00 0.00 0.00 0.00 0.00 0.00 0.00 0.00 0.00 0.00 0.00 0.00 0.00 0.00 0.00 0.00 0.00 0.00 0.00 0.00 0.01 0.05 0.00 0.00 0.00 0.00 0.00 0.00 0.01 0.00 0.00 0.00 0.00 0.00 0.00 0.00 0.00 0.00 0.00 0.00
0.00 0.00 0.00 0.00 0.00 0.00 0.00 0.00 0.00 0.00 0.00 0.00 0.00 0.00 0.00 0.00 0.00 0.00 0.00 0.00 0.00 0.00 0.00 0.00 0.00 0.00 0.00 0.01 0.01 0.00 0.00 0.00 0.00 0.00 0.00 0.00 0.00 0.00 0.00 0.00 0.00 0.00 0.00 0.00 0.00
0.00 0.00 0.00 0.00 0.00 0.00 0.00 0.00 0.00 0.00 0.00 0.00 0.00 0.00 0.00 0.00 0.00 0.00 0.00 0.00 0.00 0.00 0.00 0.00 0.00 0.00 0.00 0.00 0.00 0.00 0.00 0.00 0.00 0.00 0.00 0.00 0.00 0.00 0.00 0.00 0.00 0.00 0.00 0.00 0.00
0.00 0.00 0.00 0.00 0.00 0.00 0.00 0.00 0.00 0.00 0.00 0.00 0.00 0.00 0.00 0.00 0.00 0.00 0.00 0.00 0.00 0.00 0.00 0.00 0.00 0.00 0.00 0.00 0.00 0.00 0.00 0.00 0.00 0.00 0.00 0.00 0.00 0.00 0.00 0.00 0.00 0.00 0.00 0.00 0.00
0.00 0.00 0.00 0.00 0.00 0.00 0.00 0.00 0.00 0.00 0.00 0.00 0.00 0.00 0.00 0.00 0.00 0.00 0.00 0.00 0.00 0.00 0.00 0.00 0.00 0.00 0.00 0.00 0.00 0.00 0.00 0.00 0.00 0.00 0.00 0.00 0.00 0.00 0.00 0.00 0.00 0.00 0.00 0.00 0.00
0.00 0.00 0.00 0.00 0.00 0.00 0.00 0.00 0.00 0.00 0.00 0.00 0.00 0.00 0.00 0.00 0.00 0.00 0.00 0.00 0.00 0.00 0.00 0.00 0.00 0.00 0.00 0.00 0.00 0.00 0.00 0.00 0.00 0.00 0.00 0.00 0.00 0.00 0.00 0.00 0.00 0.00 0.00 0.00 0.00
MSLP
1021.10 1020.73 1020.45 1020.46 1020.34 1019.91 1019.77 1019.48 1019.21 1018.78 1018.44 1018.17 1017.59 1017.13 1016.77 1016.31 1015.86 1015.40 1014.99 1014.40 1014.33 1013.43 1012.87 1012.91 1012.59 1012.37 1012.32 1012.20 1012.10 1012.06 1012.11 1011.33 1010.97 1010.74 1010.00 1010.08 1010.23 1010.47 1010.77 1010.94 1011.07 1011.29 1011.60 1012.00 1012.95
1021.00 1020.54 1020.67 1020.46 1020.17 1019.87 1019.77 1019.36 1019.11 1018.82 1018.38 1017.99 1017.54 1017.35 1016.69 1016.01 1015.83 1015.07 1014.29 1014.14 1013.59 1013.50 1013.19 1013.11 1012.98 1012.83 1012.70 1012.39 1012.11 1011.90 1011.46 1010.87 1010.42 1010.27 1009.87 1009.94 1010.51 1010.46 1010.94 1011.06 1011.21 1011.45 1012.05 1012.52 1013.32
1021.00 1020.88 1020.72 1020.38 1020.08 1019.79 1019.39 1019.20 1019.18 1018.61 1018.38 1017.84 1017.67 1017.33 1016.71 1016.04 1015.62 1014.77 1013.83 1013.83 1013.76 1013.42 1013.40 1013.35 1013.28 1013.20 1012.95 1012.57 1012.00 1011.54 1010.75 1010.63 1010.11 1009.98 1009.96 1010.03 1010.59 1010.65 1010.74 1011.26 1010.55 1010.32 1011.63 1012.68 1013.38
1021.06 1020.84 1020.51 1020.12 1019.79 1019.54 1019.30 1019.13 1018.88 1018.54 1018.20 1017.87 1017.62 1017.22 1016.43 1016.26 1015.62 1014.33 1013.91 1013.88 1013.78 1013.45 1013.40 1013.55 1013.63 1013.34 1013.31 1012.61 1011.95 1011.59 1010.75 1010.33 1010.00 1009.86 1010.03 1010.04 1010.25 1010.60 1010.46 1010.00 1010.45 1010.38 1011.07 1012.23 1012.99
1020.90 1020.60 1020.27 1019.97 1019.69 1019.44 1019.15 1018.79 1018.44 1018.12 1017.94 1017.84 1017.62 1017.20 1016.82 1016.35 1015.11 1013.99 1014.02 1014.06 1013.75 1013.55 1013.59 1013.55 1013.75 1013.63 1013.13 1012.63 1012.08 1011.40 1010.76 1010.27 1009.84 1009.83 1009.72 1009.73 1009.85 1010.12 1010.11 1010.26 1010.41 1010.62 1011.17 1011.60 1012.25
1020.80 1020.53 1020.25 1019.96 1019.66 1019.34 1018.93 1018.59 1018.28 1017.95 1017.77 1017.73 1017.68 1017.43 1017.33 1015.99 1013.98 1013.98 1014.08 1013.98 1013.88 1013.68 1013.67 1013.64 1013.47 1013.47 1013.42 1012.79 1012.25 1011.14 1010.57 1010.28 1009.94 1009.74 1009.69 1009.69 1009.76 1010.07 1009.99 1010.33 1010.59 1011.10 1011.38 1011.48 1011.75
1020.75 1020.49 1020.24 1020.01 1019.68 1019.25 1018.77 1018.37 1018.01 1017.64 1017.41 1017.43 1017.58 1017.51 1017.35 1015.08 1014.03 1014.09 1014.14 1013.81 1013.65 1013.65 1013.66 1013.47 1013.55 1013.60 1013.54 1012.88 1012.17 1011.36 1010.94 1010.45 1009.93 1009.81 1009.60 1009.68 1009.85 1009.81 1010.02 1010.28 1010.83 1011.51 1011.77 1011.92 1012.04
1020.63 1020.40 1020.14 1019.84 1019.51 1019.08 1018.51 1018.03 1017.53 1017.11 1016.82 1017.02 1017.43 1017.59 1016.52 1014.17 1014.11 1014.09 1013.71 1013.45 1013.48 1013.71 1013.86 1013.51 1013.49 1013.69 1013.43 1012.91 1012.11 1011.52 1011.09 1010.46 1009.69 1009.80 1009.79 1009.81 1009.31 1009.67 1010.07 1010.37 1011.10 1011.60 1012.14 1012.20 1012.45
1020.62 1020.38 1020.06 1019.76 1019.34 1018.78 1018.08 1017.57 1016.96 1016.91 1016.87 1017.09 1017.72 1017.59 1015.46 1013.83 1013.87 1013.39 1013.35 1013.32 1013.30 1013.53 1013.67 1013.56 1013.69 1013.76 1013.52 1013.29 1012.86 1011.78 1010.44 1010.44 1010.24 1009.84 1009.80 1009.97 1009.92 1009.80 1010.31 1010.52 1011.01 1011.62 1011.81 1012.10 1012.18
1020.62 1020.35 1020.06 1019.75 1019.32 1018.70 1017.82 1017.12 1016.97 1017.07 1017.28 1017.29 1017.43 1017.57 1014.95 1014.14 1013.60 1013.08 1012.98 1013.22 1013.39 1013.59 1013.72 1013.75 1013.81 1013.85 1013.71 1013.32 1012.32 1011.85 1011.12 1010.53 1010.02 1010.09 1010.07 1010.13 1009.98 1010.21 1010.46 1010.80 1010.79 1011.37 1011.58 1011.83 1011.85
1020.54 1020.28 1020.01 1019.69 1019.27 1018.79 1018.08 1017.38 1017.76 1017.56 1017.29 1016.94 1016.75 1016.39 1014.96 1014.11 1013.51 1012.92 1012.81 1013.21 1013.43 1013.74 1013.92 1013.81 1013.86 1013.37 1013.20 1012.79 1012.38 1011.70 1011.19 1010.32 1009.90 1009.74 1009.85 1009.96 1009.97 1010.13 1010.57 1010.91 1011.02 1011.23 1011.47 1011.61 1011.66
1020.29 1020.10 1019.87 1019.60 1019.14 1018.70 1018.58 1019.14 1019.65 1019.63 1018.36 1016.41 1016.07 1015.78 1014.95 1014.60 1013.85 1012.91 1012.81 1013.22 1013.42 1013.64 1013.74 1014.05 1013.13 1012.39 1012.48 1012.55 1012.27 1011.63 1011.39 1010.25 1010.13 1009.98 1009.99 1010.16 1010.09 1010.13 1010.41 1010.50 1010.74 1010.84 1011.09 1011.36 1011.61
1020.21 1019.95 1019.66 1019.32 1019.02 1019.02 1019.44 1019.70 1019.62 1019.51 1019.19 1016.07 1015.22 1014.86 1014.29 1014.39 1013.77 1012.63 1012.57 1012.75 1013.11 1013.32 1013.34 1013.48 1011.96 1011.81 1012.11 1011.99 1011.91 1011.28 1011.35 1010.61 1010.07 1010.16 1010.31 1010.35 1010.39 1010.14 1010.01 1010.24 1010.52 1010.60 1010.83 1011.18 1011.18
1020.18 1019.89 1019.52 1019.25 1019.18 1019.88 1019.66 1019.43 1019.55 1019.51 1018.75 1016.00 1014.51 1013.43 1013.67 1013.68 1013.16 1012.07 1012.24 1012.68 1013.05 1013.41 1013.29 1013.02 1011.73 1011.62 1011.82 1011.43 1011.35 1010.91 1010.67 1010.83 1010.70 1010.46 1010.59 1010.66 1010.25 1009.94 1009.79 1009.81 1010.03 1010.36 1010.69 1010.95 1011.11
1020.16 1019.91 1019.60 1019.18 1019.69 1019.75 1019.58 1019.35 1019.32 1019.39 1017.82 1015.25 1013.65 1012.62 1012.89 1013.43 1013.12 1011.85 1011.84 1012.41 1012.91 1012.98 1013.72 1012.23 1011.83 1011.35 1011.18 1010.89 1010.87 1010.71 1010.51 1010.90 1011.03 1011.02 1011.00 1011.03 1010.77 1009.90 1009.97 1009.91 1009.77 1010.09 1010.71 1011.00 1011.28
1019.98 1019.89 1019.71 1019.65 1019.94 1019.51 1019.34 1019.17 1019.22 1018.97 1017.03 1015.02 1013.82 1013.36 1013.43 1013.18 1013.12 1012.45 1012.29 1012.52 1012.96 1013.14 1012.97 1012.51 1011.79 1011.36 1010.95 1010.98 1010.86 1010.94 1011.16 1011.49 1012.19 1011.70 1011.50 1010.92 1010.84 1009.94 1009.86 1009.69 1010.03 1010.34 1010.76 1011.25 1011.58
1019.78 1019.68 1019.70 1019.57 1019.70 1019.39 1019.17 1019.25 1019.13 1017.93 1016.75 1015.64 1014.90 1014.45 1014.54 1014.12 1013.51 1013.16 1012.79 1012.87 1013.69 1014.01 1013.63 1012.76 1012.21 1011.81 1011.29 1011.01 1011.24 1011.19 1011.48 1012.28 1012.23 1011.78 1011.44 1011.12 1011.09 1009.98 1009.87 1010.12 1010.46 1010.60 1011.09 1011.64 1012.06
1019.60 1019.51 1019.58 1019.45 1019.34 1019.28 1019.27 1019.22 1018.67 1017.44 1016.65 1015.82 1015.49 1015.11 1014.99 1014.62 1014.00 1013.77 1013.63 1013.63 1013.94 1014.39 1014.63 1014.25 1013.01 1012.45 1011.81 1011.56 1011.44 1011.55 1011.76 1012.39 1011.86 1011.73 1011.63 1011.47 1010.90 1009.80 1010.16 1010.69 1011.02 1011.27 1011.71 1012.19 1012.48
1019.41 1019.68 1019.70 1019.17 1019.10 1019.49 1019.36 1019.47 1018.29 1017.20 1016.53 1016.26 1015.80 1015.64 1015.35 1015.13 1014.82 1014.39 1014.10 1013.76 1013.73 1013.97 1014.96 1015.23 1014.23 1012.93 1012.25 1011.77 1011.71 1011.76 1011.70 1011.83 1011.52 1012.04 1011.67 1011.26 1010.55 1009.87 1010.54 1011.16 1011.59 1011.95 1012.34 1012.93 1013.18
1019.96 1019.97 1019.70 1019.20 1019.21 1019.35 1019.63 1019.30 1018.23 1017.25 1016.61 1016.41 1016.45 1016.19 1016.04 1015.52 1015.21 1014.64 1014.28 1013.80 1013.79 1013.84 1013.95 1014.92 1014.69 1013.31 1012.28 1011.67 1011.48 1011.25 1011.22 1011.59 1011.62 1011.86 1011.61 1011.11 1010.73 1010.18 1010.63 1011.20 1011.81 1012.34 1012.77 1013.38 1013.81
1020.06 1020.06 1019.57 1019.33 1019.33 1019.47 1020.02 1019.43 1018.25 1017.03 1016.83 1016.61 1016.28 1016.27 1016.07 1015.88 1015.45 1014.91 1014.33 1013.85 1013.83 1013.83 1013.87 1014.43 1014.66 1013.70 1012.48 1012.08 1011.84 1011.42 1011.33 1011.58 1011.75 1012.18 1012.05 1011.50 1010.24 1009.82 1010.30 1010.85 1011.67 1012.45 1013.09 1013.74 1014.30
1020.29 1020.40 1019.48 1019.30 1020.04 1020.53 1020.15 1019.34 1018.33 1017.31 1016.60 1016.48 1016.26 1016.09 1015.93 1015.73 1015.41 1014.93 1014.46 1013.78 1013.70 1013.98 1013.93 1014.06 1014.15 1013.95 1013.59 1011.88 1011.86 1011.57 1011.27 1011.44 1011.84 1012.68 1012.69 1012.46 1010.45 1009.95 1010.46 1010.91 1011.62 1012.57 1013.43 1014.22 1014.86
1020.90 1020.59 1019.77 1019.40 1020.42 1020.75 1020.02 1019.22 1018.32 1017.53 1017.02 1016.65 1016.38 1016.19 1015.99 1015.82 1015.62 1014.88 1014.34 1013.57 1013.56 1013.76 1014.12 1014.18 1013.85 1013.81 1013.32 1012.47 1011.89 1011.69 1011.47 1011.69 1011.96 1012.33 1012.55 1012.14 1010.56 1010.20 1010.60 1011.18 1011.81 1012.65 1013.71 1014.59 1015.29
1021.42 1021.34 1020.72 1020.80 1021.08 1020.94 1020.38 1019.50 1018.64 1017.65 1017.35 1017.05 1016.75 1016.35 1016.45 1016.03 1015.62 1015.22 1014.62 1013.89 1013.86 1013.79 1013.98 1014.22 1014.23 1013.92 1013.35 1012.57 1012.22 1011.93 1011.77 1011.84 1011.98 1012.44 1012.23 1011.61 1010.81 1010.40 1010.93 1011.58 1012.31 1013.04 1013.93 1014.73 1015.41
1021.54 1021.93 1021.67 1021.66 1021.57 1021.26 1020.88 1019.92 1019.09 1018.42 1017.79 1017.44 1017.30 1017.50 1017.55 1017.10 1016.32 1015.81 1015.29 1014.73 1014.22 1014.05 1014.07 1014.28 1014.55 1014.22 1013.24 1012.43 1012.42 1011.89 1011.63 1011.78 1012.04 1011.97 1011.95 1011.43 1011.44 1010.92 1011.15 1011.56 1012.28 1013.00 1014.07 1014.90 1015.59
1021.35 1021.88 1022.19 1021.97 1021.94 1021.51 1020.91 1020.44 1019.54 1018.97 1018.55 1018.01 1017.99 1017.88 1017.60 1017.55 1016.89 1016.60 1016.17 1015.78 1015.18 1014.80 1014.67 1014.95 1014.80 1014.53 1013.71 1012.73 1012.24 1012.11 1011.62 1011.60 1011.90 1011.88 1011.72 1011.59 1011.41 1011.00 1011.59 1012.06 1012.72 1013.27 1014.10 1014.81 1015.48
1021.41 1021.32 1021.50 1022.00 1022.00 1021.89 1021.01 1020.28 1019.80 1019.57 1018.71 1018.40 1018.53 1018.64 1017.91 1017.15 1016.88 1016.32 1016.05 1015.84 1015.75 1015.86 1015.60 1015.55 1015.43 1015.35 1014.24 1013.27 1012.59 1012.15 1011.14 1011.23 1011.38 1011.41 1011.39 1011.65 1011.50 1011.57 1012.26 1012.81 1013.29 1013.70 1014.24 1014.83 1015.51
Thickness
5674 5676 5678 5676 5674 5676 5675 5674 5674 5675 5676 5676 5680 5682 5684 5688 5692 5696 5699 5705 5706 5714 5720 5720 5724 5726 5726 5724 5728 5729 5710 5712 5724 5726 5746 5751 5752 5756 5761 5757 5760 5763 5763 5763 5761
5672 5675 5671 5671 5671 5671 5668 5669 5668 5667 5668 5670 5672 5672 5677 5682 5683 5686 5696 5697 5702 5704 5707 5706 5706 5709 5707 5712 5715 5714 5708 5716 5736 5738 5743 5748 5744 5750 5749 5749 5752 5756 5756 5756 5753
5668 5667 5665 5666 5666 5665 5665 5664 5660 5663 5662 5664 5663 5665 5668 5674 5676 5679 5689 5690 5690 5695 5697 5697 5697 5696 5694 5700 5705 5709 5711 5720 5733 5738 5741 5740 5736 5745 5744 5735 5757 5760 5750 5748 5747
5663 5663 5663 5664 5664 5662 5660 5658 5656 5656 5656 5657 5657 5658 5664 5666 5665 5677 5681 5681 5682 5686 5686 5682 5681 5680 5678 5685 5698 5693 5710 5719 5728 5733 5730 5731 5737 5735 5741 5757 5755 5761 5756 5748 5744
5663 5663 5663 5662 5661 5659 5658 5656 5656 5654 5652 5650 5649 5650 5652 5652 5658 5673 5672 5672 5674 5676 5673 5671 5666 5666 5668 5676 5683 5686 5701 5710 5722 5722 5728 5731 5731 5732 5737 5748 5752 5753 5750 5749 5745
5661 5661 5660 5659 5658 5657 5656 5654 5652 5650 5647 5644 5641 5640 5639 5646 5666 5665 5663 5664 5665 5664 5661 5661 5659 5660 5657 5663 5667 5685 5694 5702 5708 5713 5718 5721 5724 5725 5736 5740 5742 5741 5742 5746 5745
5658 5657 5656 5654 5654 5654 5653 5651 5650 5647 5644 5640 5635 5633 5630 5642 5657 5657 5655 5656 5656 5654 5650 5651 5650 5645 5646 5650 5661 5670 5672 5682 5694 5702 5708 5714 5708 5715 5729 5733 5732 5731 5733 5736 5738
5656 5655 5654 5652 5651 5651 5651 5650 5649 5647 5643 5638 5631 5627 5627 5651 5650 5649 5650 5649 5646 5640 5636 5637 5637 5631 5632 5639 5646 5650 5659 5659 5687 5690 5697 5702 5701 5717 5720 5725 5721 5722 5722 5725 5728
5653 5652 5651 5650 5649 5649 5650 5649 5648 5642 5637 5631 5624 5620 5630 5648 5642 5645 5642 5638 5635 5629 5622 5621 5613 5609 5612 5610 5611 5627 5643 5647 5663 5680 5682 5689 5689 5706 5709 5714 5714 5715 5718 5719 5723
5649 5648 5647 5646 5645 5646 5648 5649 5643 5636 5629 5625 5620 5616 5635 5635 5636 5638 5637 5630 5622 5614 5607 5600 5591 5585 5584 5589 5589 5605 5623 5636 5652 5663 5671 5674 5685 5692 5699 5703 5710 5710 5712 5715 5716
5645 5644 5643 5642 5642 5642 5644 5644 5635 5632 5627 5625 5622 5620 5626 5629 5631 5631 5630 5620 5611 5599 5586 5584 5575 5572 5571 5579 5590 5601 5612 5633 5646 5659 5663 5669 5679 5687 5690 5693 5701 5703 5705 5708 5712
5643 5641 5639 5639 5639 5640 5637 5627 5617 5611 5610 5624 5621 5618 5621 5620 5616 5623 5623 5607 5597 5585 5581 5571 5567 5574 5570 5568 5574 5588 5596 5625 5633 5644 5656 5655 5666 5678 5683 5690 5695 5699 5701 5703 5705
5640 5639 5638 5637 5636 5634 5626 5620 5614 5610 5601 5622 5625 5621 5622 5618 5614 5618 5618 5606 5592 5581 5573 5561 5576 5575 5566 5567 5566 5583 5589 5612 5633 5637 5643 5646 5655 5668 5682 5687 5690 5697 5701 5700 5704
5636 5635 5634 5635 5632 5622 5623 5618 5613 5608 5599 5622 5627 5631 5625 5620 5613 5625 5616 5603 5588 5574 5568 5560 5574 5570 5561 5567 5574 5580 5606 5614 5617 5627 5630 5638 5640 5657 5672 5682 5686 5691 5692 5696 5698
5631 5630 5630 5631 5624 5623 5621 5617 5611 5606 5596 5625 5627 5639 5627 5617 5615 5621 5617 5601 5582 5574 5565 5569 5569 5570 5570 5577 5584 5594 5609 5612 5612 5617 5624 5627 5636 5659 5657 5669 5683 5686 5685 5689 5692
5628 5626 5625 5624 5619 5620 5618 5616 5611 5600 5601 5614 5623 5617 5616 5615 5611 5613 5607 5600 5588 5573 5570 5568 5574 5575 5581 5579 5585 5593 5599 5600 5596 5607 5610 5629 5635 5651 5658 5673 5673 5677 5680 5682 5682
5626 5623 5620 5619 5619 5616 5616 5613 5601 5596 5614 5612 5609 5609 5602 5600 5603 5602 5596 5588 5571 5558 5558 5570 5573 5576 5583 5585 5587 5593 5599 5579 5590 5603 5610 5619 5622 5655 5659 5663 5668 5673 5674 5673 5673
5622 5620 5616 5614 5614 5613 5609 5607 5600 5610 5605 5612 5607 5603 5599 5601 5602 5595 5589 5583 5576 5566 5549 5549 5564 5573 5583 5585 5590 5587 5595 5581 5588 5599 5614 5611 5619 5654 5653 5652 5655 5661 5663 5662 5664
5619 5615 5612 5613 5612 5607 5606 5590 5599 5606 5611 5604 5603 5600 5596 5598 5595 5590 5585 5585 5583 5577 5553 5539 5548 5574 5583 5588 5592 5588 5588 5601 5597 5592 5605 5614 5631 5651 5644 5646 5648 5651 5653 5652 5652
5609 5607 5607 5608 5606 5603 5596 5593 5599 5606 5608 5604 5593 5596 5591 5591 5592 5588 5586 5592 5584 5584 5579 5557 5558 5575 5584 5593 5597 5597 5603 5599 5599 5600 5606 5613 5618 5646 5643 5645 5643 5644 5647 5643 5641
5601 5604 5602 5602 5601 5595 5589 5586 5595 5607 5604 5599 5597 5592 5591 5590 5589 5588 5593 5597 5589 5585 5583 5570 5565 5575 5586 5587 5587 5597 5598 5598 5603 5598 5601 5610 5632 5643 5647 5646 5643 5641 5639 5636 5634
5592 5596 5598 5597 5590 5559 5583 5588 5595 5599 5606 5600 5600 5595 5593 5594 5592 5591 5593 5597 5593 5587 5582 5581 5574 5564 5566 5595 5596 5601 5604 5605 5602 5592 5589 5590 5626 5639 5639 5641 5642 5638 5632 5628 5624
5583 5581 5589 5592 5582 5575 5578 5587 5593 5595 5598 5597 5597 5598 5597 5593 5590 5593 5598 5607 5599 5594 5585 5581 5581 5575 5579 5593 5596 5598 5605 5602 5600 5595 5589 5601 5627 5631 5633 5633 5635 5634 5626 5620 5616
5572 5578 5576 5569 5563 5575 5577 5581 5583 5592 5590 5591 5593 5595 5589 5592 5593 5593 5597 5605 5600 5598 5598 5587 5579 5582 5584 5593 5594 5592 5599 5602 5605 5597 5600 5606 5623 5635 5635 5631 5626 5624 5620 5615 5610
5563 5565 5562 5568 5565 5564 5567 5573 5577 5580 5584 5585 5588 5579 5578 5577 5584 5588 5592 5593 5599 5600 5595 5589 5582 5582 5589 5595 5596 5602 5605 5600 5601 5605 5612 5616 5610 5627 5631 5630 5626 5622 5613 5608 5603
5561 5555 5545 5547 5546 5556 5561 5563 5571 5573 5575 5579 5580 5574 5577 5576 5586 5579 5583 5585 5590 5592 5592 5583 5587 5582 5589 5599 5600 5598 5604 5604 5601 5603 5604 5607 5612 5624 5619 5617 5617 5616 5610 5605 5600
5547 5549 5550 5544 5537 5544 5550 5561 5567 5565 5571 5572 5571 5565 5569 5579 5582 5584 5583 5585 5585 5585 5584 5582 5580 5574 5588 5589 5594 5599 5612 5607 5609 5608 5613 5609 5620 5619 5616 5613 5612 5609 5605 5601 5593